• In Lithuania
  • List of Countries
  • For 7 days
  • Water Temperature
  • Satellite Maps
  • Weather Map
  • Weather Widgets
  • user-avatar
    Login

    Hourly Weather San Pedro Sula

    Today, 18 December, Monday

    Time Temperature Precipitation Wind Pressure Humidity
    00:00 +24°C° 0 mm 2 mps 747 mmHg 98%
    01:00 +23°C° 0 mm 2 mps 747 mmHg 98%
    02:00 +23°C° 0 mm 1 mps 747 mmHg 98%
    03:00 +23°C° 0 mm 1 mps 746 mmHg 98%
    04:00 +23°C° 0 mm 1 mps 747 mmHg 98%
    05:00 +23°C° 0 mm 1 mps 747 mmHg 98%
    06:00 +23°C° 0 mm 1 mps 747 mmHg 98%
    07:00 +25°C° 0 mm 1 mps 747 mmHg 90%
    08:00 +27°C° 0 mm 1 mps 748 mmHg 81%
    09:00 +27°C° 0 mm 0 mps 748 mmHg 73%
    10:00 +30°C° 0.1 mm 1 mps 748 mmHg 69%
    11:00 +30°C° 0.1 mm 2 mps 748 mmHg 66%
    12:00 +31°C° 0.1 mm 2 mps 747 mmHg 62%
    13:00 +31°C° 0.3 mm 2 mps 747 mmHg 66%
    14:00 +30°C° 0.3 mm 3 mps 746 mmHg 71%
    15:00 +29°C° 0.3 mm 3 mps 746 mmHg 75%
    16:00 +28°C° 0.2 mm 3 mps 746 mmHg 81%
    17:00 +27°C° 0.2 mm 3 mps 746 mmHg 88%
    18:00 +25°C° 0.2 mm 2 mps 746 mmHg 95%
    19:00 +25°C° 0.1 mm 2 mps 747 mmHg 96%
    20:00 +25°C° 0.1 mm 2 mps 747 mmHg 97%
    21:00 +24°C° 0.1 mm 2 mps 748 mmHg 98%
    22:00 +24°C° 0.1 mm 2 mps 748 mmHg 98%
    23:00 +24°C° 0.1 mm 2 mps 748 mmHg 98%

    Tomorrow, 19 December, Tuesday

    Time Temperature Precipitation Wind Pressure Humidity
    00:00 +24°C° 0.1 mm 2 mps 748 mmHg 99%
    01:00 +24°C° 0.1 mm 2 mps 748 mmHg 99%
    02:00 +24°C° 0.1 mm 2 mps 747 mmHg 99%
    03:00 +24°C° 0.1 mm 1 mps 747 mmHg 99%
    04:00 +23°C° 0 mm 1 mps 747 mmHg 99%
    05:00 +23°C° 0 mm 1 mps 748 mmHg 99%
    06:00 +23°C° 0 mm 1 mps 748 mmHg 99%
    07:00 +25°C° 0 mm 1 mps 748 mmHg 92%
    08:00 +26°C° 0 mm 1 mps 749 mmHg 85%
    09:00 +28°C° 0 mm 1 mps 749 mmHg 79%
    10:00 +29°C° 0.1 mm 1 mps 749 mmHg 75%
    11:00 +29°C° 0.1 mm 2 mps 748 mmHg 71%
    12:00 +30°C° 0.1 mm 2 mps 748 mmHg 68%
    13:00 +30°C° 0.3 mm 2 mps 747 mmHg 71%
    14:00 +29°C° 0.3 mm 2 mps 746 mmHg 75%
    15:00 +29°C° 0.3 mm 3 mps 746 mmHg 79%
    16:00 +27°C° 0.4 mm 2 mps 746 mmHg 85%
    17:00 +26°C° 0.4 mm 2 mps 746 mmHg 91%
    18:00 +25°C° 0.4 mm 2 mps 746 mmHg 97%
    19:00 +25°C° 0.1 mm 2 mps 747 mmHg 97%
    20:00 +24°C° 0.1 mm 2 mps 747 mmHg 98%
    21:00 +24°C° 0.1 mm 2 mps 748 mmHg 98%
    22:00 +24°C° 0.1 mm 2 mps 748 mmHg 99%
    23:00 +24°C° 0.1 mm 1 mps 747 mmHg 99%

    Day after tomorrow, 20 December, Wednesday

    Time Temperature Precipitation Wind Pressure Humidity
    00:00 +24°C° 0.1 mm 1 mps 747 mmHg 99%
    01:00 +24°C° 0.1 mm 1 mps 747 mmHg 99%
    02:00 +24°C° 0.1 mm 1 mps 746 mmHg 99%
    03:00 +23°C° 0.1 mm 1 mps 746 mmHg 99%
    04:00 +23°C° 0 mm 1 mps 746 mmHg 99%
    05:00 +23°C° 0 mm 1 mps 746 mmHg 99%
    06:00 +23°C° 0 mm 1 mps 747 mmHg 99%
    07:00 +25°C° 0 mm 1 mps 747 mmHg 92%
    08:00 +26°C° 0 mm 1 mps 748 mmHg 86%
    09:00 +26°C° 0 mm 0 mps 748 mmHg 80%
    10:00 +29°C° 0 mm 1 mps 748 mmHg 72%
    11:00 +30°C° 0 mm 1 mps 747 mmHg 65%
    12:00 +32°C° 0 mm 1 mps 747 mmHg 58%
    13:00 +31°C° 0.1 mm 2 mps 746 mmHg 60%
    14:00 +31°C° 0.1 mm 2 mps 745 mmHg 63%
    15:00 +30°C° 0.1 mm 2 mps 745 mmHg 65%
    16:00 +29°C° 0.1 mm 2 mps 745 mmHg 74%
    17:00 +27°C° 0.1 mm 2 mps 745 mmHg 82%
    18:00 +25°C° 0.1 mm 2 mps 745 mmHg 91%
    19:00 +25°C° 0.1 mm 2 mps 746 mmHg 93%
    20:00 +24°C° 0.1 mm 1 mps 746 mmHg 95%
    21:00 +24°C° 0.1 mm 1 mps 747 mmHg 97%
    22:00 +24°C° 0 mm 1 mps 746 mmHg 98%
    23:00 +24°C° 0 mm 1 mps 746 mmHg 98%

    21 December, Thursday

    Time Temperature Precipitation Wind Pressure Humidity
    00:00 +24°C° 0 mm 1 mps 746 mmHg 98%
    01:00 +24°C° 0 mm 1 mps 745 mmHg 98%
    02:00 +23°C° 0 mm 1 mps 745 mmHg 97%
    03:00 +23°C° 0 mm 1 mps 745 mmHg 97%
    04:00 +23°C° 0 mm 1 mps 745 mmHg 97%
    05:00 +23°C° 0 mm 1 mps 745 mmHg 97%
    06:00 +23°C° 0 mm 1 mps 746 mmHg 97%
    07:00 +25°C° 0 mm 1 mps 746 mmHg 89%
    08:00 +27°C° 0 mm 1 mps 747 mmHg 80%
    09:00 +27°C° 0 mm 0 mps 747 mmHg 72%
    10:00 +30°C° 0 mm 1 mps 747 mmHg 65%
    11:00 +32°C° 0 mm 1 mps 746 mmHg 58%
    12:00 +33°C° 0 mm 1 mps 746 mmHg 51%
    13:00 +32°C° 0 mm 2 mps 745 mmHg 54%
    14:00 +32°C° 0 mm 2 mps 744 mmHg 56%
    15:00 +31°C° 0 mm 2 mps 744 mmHg 59%
    16:00 +29°C° 0 mm 2 mps 744 mmHg 69%
    17:00 +27°C° 0 mm 2 mps 744 mmHg 79%
    18:00 +26°C° 0 mm 2 mps 745 mmHg 88%
    19:00 +25°C° 0.1 mm 2 mps 745 mmHg 91%
    20:00 +25°C° 0.1 mm 2 mps 746 mmHg 94%
    21:00 +24°C° 0.1 mm 1 mps 746 mmHg 97%
    22:00 +24°C° 0.1 mm 1 mps 746 mmHg 97%
    23:00 +24°C° 0.1 mm 1 mps 746 mmHg 97%

    22 December, Friday

    Time Temperature Precipitation Wind Pressure Humidity
    00:00 +24°C° 0.1 mm 1 mps 746 mmHg 98%
    01:00 +24°C° 0 mm 1 mps 745 mmHg 97%
    02:00 +23°C° 0 mm 1 mps 745 mmHg 97%
    03:00 +23°C° 0 mm 1 mps 745 mmHg 97%
    04:00 +23°C° 0 mm 1 mps 745 mmHg 97%
    05:00 +23°C° 0 mm 1 mps 745 mmHg 97%
    06:00 +23°C° 0 mm 1 mps 746 mmHg 97%
    07:00 +25°C° 0 mm 1 mps 746 mmHg 87%
    08:00 +27°C° 0 mm 1 mps 747 mmHg 78%
    09:00 +29°C° 0 mm 1 mps 747 mmHg 69%
    10:00 +30°C° 0 mm 1 mps 747 mmHg 63%
    11:00 +32°C° 0 mm 1 mps 746 mmHg 57%
    12:00 +33°C° 0 mm 1 mps 746 mmHg 51%
    13:00 +32°C° 0 mm 2 mps 745 mmHg 54%
    14:00 +32°C° 0 mm 2 mps 744 mmHg 56%
    15:00 +31°C° 0 mm 2 mps 744 mmHg 59%
    16:00 +29°C° 0.1 mm 2 mps 744 mmHg 69%
    17:00 +28°C° 0.1 mm 2 mps 745 mmHg 79%
    18:00 +26°C° 0.1 mm 2 mps 745 mmHg 89%
    19:00 +25°C° 0.1 mm 2 mps 745 mmHg 91%
    20:00 +25°C° 0.1 mm 2 mps 746 mmHg 94%
    21:00 +24°C° 0.1 mm 1 mps 746 mmHg 96%
    22:00 +24°C° 0 mm 1 mps 746 mmHg 96%
    23:00 +24°C° 0 mm 1 mps 746 mmHg 96%

    23 December, Saturday

    Time Temperature Precipitation Wind Pressure Humidity
    00:00 +24°C° 0 mm 1 mps 746 mmHg 96%
    01:00 +23°C° 0 mm 1 mps 746 mmHg 96%
    02:00 +23°C° 0 mm 1 mps 746 mmHg 96%
    03:00 +23°C° 0 mm 1 mps 746 mmHg 96%
    04:00 +23°C° 0 mm 1 mps 746 mmHg 96%
    05:00 +23°C° 0 mm 1 mps 746 mmHg 96%
    06:00 +23°C° 0 mm 1 mps 747 mmHg 96%
    07:00 +25°C° 0 mm 1 mps 747 mmHg 87%
    08:00 +25°C° 0 mm 0 mps 748 mmHg 79%
    09:00 +27°C° 0 mm 0 mps 748 mmHg 70%
    10:00 +30°C° 0 mm 1 mps 748 mmHg 66%
    11:00 +31°C° 0 mm 1 mps 747 mmHg 61%
    12:00 +32°C° 0 mm 2 mps 747 mmHg 57%
    13:00 +31°C° 0.5 mm 2 mps 746 mmHg 63%
    14:00 +30°C° 0.5 mm 2 mps 745 mmHg 70%
    15:00 +29°C° 0.5 mm 3 mps 745 mmHg 76%
    16:00 +28°C° 0.5 mm 3 mps 745 mmHg 82%
    17:00 +26°C° 0.5 mm 2 mps 746 mmHg 88%
    18:00 +25°C° 0.5 mm 2 mps 746 mmHg 94%
    19:00 +24°C° 0.4 mm 2 mps 746 mmHg 95%
    20:00 +24°C° 0.4 mm 2 mps 747 mmHg 96%
    21:00 +24°C° 0.4 mm 1 mps 747 mmHg 97%
    22:00 +24°C° 0.4 mm 1 mps 747 mmHg 98%
    23:00 +24°C° 0.4 mm 1 mps 747 mmHg 98%
    Show more